Tracking 19832 objects as of 26-Aug-2019
HD Live streaming from Space Station
objects crossing your sky now

FREGAT R/B

Track FREGAT R/B now!


NORAD ID: 41106
Int'l Code: 2015-074B
Perigee: 34,313.2 km
Apogee: 35,834.0 km
Inclination: 2.3 °
Period: 1,399.5 minutes
Semi major axis: 41444 km
RCS: Unknown
Launch date: December 11, 2015
Source: Commonwealth of Independent States (former USSR) (CIS)
Launch site: TYURATAM MISSILE AND SPACE COMPLEX (TTMTR)

Note: This is a ROCKET BODY
aabbcc
Your satellite tracking list
Your tracking list is empty




NASA's NSSDC Master Catalog

Two Line Element Set (TLE):
1 41106U 15074B   19236.68320337 -.00000156  00000-0  00000+0 0  9994
2 41106   2.3058  86.4094 0183478 287.5891  70.6928  1.02896580 13908
Source of the keplerian elements: AFSPC